Location: R�o Medio
(42.4667°N, 3.0167°W)
Time: 08:08:05
(UTC+00:00)

Cosmos 841 Rocket - Pass Details

Date: 27 February 2020
Orbit: 746 x 773 km, 74.0° (Epoch: 31 March)

Event Time Altitude Azimuth Distance (km) Brightness Sun altitude
Rises 18:58:23 0° 172° (S) 3,175 6.6 -11.8°
Reaches altitude 10° 19:00:56 10° 163° (SSE) 2,258 5.8 -12.3°
Maximum altitude 19:05:26 32° 101° (E) 1,263 4.1 -13.1°
Drops below altitude 10° 19:10:00 10° 39° (NE) 2,284 5.6 -13.9°
Sets 19:12:34 0° 30° (NNE) 3,218 6.5 -14.4°
